Weather History for KTTF - October, 2012

Change the Weather History Date:

Friday, October 26, 2012

  Actual Average Record
Temperature  
Mean Temperature 58 °F -  
Max Temperature 69 °F 57 °F 83 °F (1963)
Min Temperature 46 °F 39 °F 24 °F (1936)
Degree Days  
Heating Degree Days 8    
Growing Degree Days 8 (Base 50)    
Moisture  
Dew Point 44 °F    
Average Humidity 73    
Maximum Humidity 93    
Minimum Humidity 56    
Precipitation  
Precipitation 0.00 in - - ()
Sea Level Pressure  
Sea Level Pressure 30.10 in    
Wind  
Wind Speed 10 mph (NW)    
Max Wind Speed 18 mph    
Max Gust Speed 26 mph    
Visibility 10 miles    
Events Rain    
Averages and records for this station are not official NWS values.
T = Trace of Precipitation, MM = Missing Value Source: NWS Daily Summary

Daily Weather History Graph

Daily Weather History Graph

Search for Another Location

Airport or City:

Trip Planner

Search our weather history database for the weather conditions in past years. The results will help you decide how hot, cold, wet, or windy it might be!

Date:

Astronomy

Oct. 26, 2012 Rise Set
Actual Time 7:59 AM EDT 6:35 PM EDT
Civil Twilight 7:30 AM EDT 7:03 PM EDT
Nautical Twilight 6:58 AM EDT 7:36 PM EDT
Astronomical Twilight 6:25 AM EDT 8:08 PM EDT
Moon 4:52 PM EDT (10/26) 4:52 AM EDT (10/26)
Length of Visible Light 11h 32m
Length of Day
10h 35m
Waxing Gibbous, 91% of the Moon is Illuminated
Oct 26
Waxing Gibbous
Oct 29
Full
Nov 6
Last Quarter
Nov 13
New
Nov 20
First Quarter

Hourly Weather History & Observations

Time (EDT) Temp. Windchill Dew Point Humidity Pressure Visibility Wind Dir Wind Speed Gust Speed Precip Events Conditions
12:15 AM 68.0 °F - 53.6 °F 60% 29.86 in 10.0 mi South 12.7 mph 17.3 mph N/A   Clear
12:30 AM 68.0 °F - 53.6 °F 60% 29.87 in 10.0 mi South 12.7 mph - N/A   Clear
12:51 AM 68.0 °F - 53.6 °F 60% 29.86 in 10.0 mi SSW 11.5 mph - N/A   Clear
1:11 AM 69.8 °F - 53.6 °F 56% 29.86 in 10.0 mi SSW 13.8 mph 18.4 mph N/A   Scattered Clouds
1:52 AM 69.8 °F - 53.6 °F 56% 29.86 in 10.0 mi SSW 11.5 mph - N/A   Clear
2:12 AM 69.8 °F - 53.6 °F 56% 29.87 in 10.0 mi SSW 10.4 mph 16.1 mph N/A   Scattered Clouds
2:32 AM 69.8 °F - 55.4 °F 60% 29.87 in 10.0 mi SSW 12.7 mph 18.4 mph N/A   Overcast
2:52 AM 69.8 °F - 55.4 °F 60% 29.88 in 10.0 mi SW 11.5 mph 19.6 mph N/A   Mostly Cloudy
3:12 AM 69.8 °F - 55.4 °F 60% 29.89 in 10.0 mi SW 11.5 mph 17.3 mph N/A   Scattered Clouds
3:32 AM 68.0 °F - 55.4 °F 64% 29.90 in 10.0 mi WSW 12.7 mph 17.3 mph N/A   Clear
3:52 AM 68.0 °F - 55.4 °F 64% 29.91 in 10.0 mi West 15.0 mph - N/A   Clear
4:12 AM 60.8 °F - 55.4 °F 82% 29.94 in 10.0 mi WNW 18.4 mph 26.5 mph N/A   Scattered Clouds
4:33 AM 55.4 °F - 51.8 °F 88% 29.97 in 10.0 mi WNW 15.0 mph 19.6 mph N/A   Scattered Clouds
4:53 AM 55.4 °F - 50.0 °F 82% 29.97 in 10.0 mi WNW 10.4 mph 19.6 mph N/A   Mostly Cloudy
5:13 AM 55.4 °F - 48.2 °F 77% 29.98 in 10.0 mi NW 10.4 mph 20.7 mph N/A   Overcast
5:33 AM 55.4 °F - 46.4 °F 72% 29.99 in 10.0 mi WNW 15.0 mph 23.0 mph N/A   Overcast
5:53 AM 53.6 °F - 44.6 °F 72% 30.01 in 10.0 mi WNW 12.7 mph 17.3 mph N/A   Overcast
6:13 AM 53.6 °F - 44.6 °F 72% 30.03 in 10.0 mi WNW 12.7 mph 20.7 mph N/A   Overcast
6:33 AM 51.8 °F - 44.6 °F 76% 30.04 in 10.0 mi NW 13.8 mph 23.0 mph N/A   Overcast
6:53 AM 51.8 °F - 44.6 °F 76% 30.06 in 10.0 mi WNW 13.8 mph - N/A   Overcast
7:13 AM 51.8 °F - 46.4 °F 82% 30.05 in 10.0 mi NW 11.5 mph 17.3 mph N/A   Overcast
7:34 AM 51.8 °F - 44.6 °F 76% 30.07 in 10.0 mi NW 12.7 mph 18.4 mph N/A   Overcast
7:54 AM 50.0 °F - 44.6 °F 82% 30.07 in 10.0 mi NNW 10.4 mph 17.3 mph N/A   Overcast
8:14 AM 48.2 °F - 44.6 °F 87% 30.10 in 10.0 mi NW 11.5 mph 18.4 mph N/A Rain Light Rain
8:34 AM 48.2 °F - 44.6 °F 87% 30.12 in 5.0 mi WNW 9.2 mph - N/A Rain Light Rain
8:54 AM 46.4 °F 41.1 °F 44.6 °F 93% 30.13 in 5.0 mi NW 11.5 mph - N/A Rain Rain
9:54 AM 48.2 °F - 44.6 °F 87% 30.16 in 10.0 mi NW 9.2 mph - N/A Rain Light Rain
10:14 AM 48.2 °F - 44.6 °F 87% 30.15 in 10.0 mi North 9.2 mph - N/A Rain Light Rain
10:35 AM 48.2 °F - 44.6 °F 87% 30.16 in 10.0 mi NNW 6.9 mph - N/A Rain Light Rain
10:55 AM 48.2 °F - 44.6 °F 87% 30.17 in 10.0 mi North 5.8 mph - N/A   Overcast
11:15 AM 48.2 °F - 44.6 °F 87% 30.18 in 10.0 mi NNW 8.1 mph - N/A Rain Light Rain
11:35 AM 48.2 °F - 44.6 °F 87% 30.19 in 10.0 mi NNW 6.9 mph - N/A Rain Light Rain
11:55 AM 48.2 °F - 44.6 °F 87% 30.19 in 10.0 mi NNW 8.1 mph - N/A   Overcast
12:15 PM 48.2 °F - 42.8 °F 82% 30.19 in 10.0 mi NNW 10.4 mph - N/A   Overcast
12:35 PM 50.0 °F - 42.8 °F 76% 30.19 in 10.0 mi NNW 10.4 mph - N/A   Overcast
12:55 PM 50.0 °F - 42.8 °F 76% 30.19 in 10.0 mi NNW 9.2 mph - N/A   Overcast
1:16 PM 50.0 °F - 42.8 °F 76% 30.18 in 10.0 mi NNW 9.2 mph - N/A   Overcast
1:31 PM 50.0 °F - 42.8 °F 76% 30.18 in 10.0 mi North 10.4 mph 17.3 mph N/A   Overcast
1:51 PM 50.0 °F - 44.6 °F 82% 30.19 in 10.0 mi NW 9.2 mph - N/A   Overcast
2:11 PM 50.0 °F - 42.8 °F 76% 30.19 in 10.0 mi NW 9.2 mph - N/A   Overcast
2:31 PM 50.0 °F - 42.8 °F 76% 30.20 in 10.0 mi North 9.2 mph - N/A   Overcast
2:51 PM 50.0 °F - 41.0 °F 71% 30.19 in 10.0 mi NNW 10.4 mph - N/A   Overcast
3:31 PM 50.0 °F - 41.0 °F 71% 30.18 in 10.0 mi NNW 8.1 mph - N/A   Mostly Cloudy
3:51 PM 48.2 °F - 39.2 °F 71% 30.19 in 10.0 mi NW 9.2 mph - N/A   Scattered Clouds
4:11 PM 48.2 °F - 41.0 °F 76% 30.19 in 10.0 mi NW 9.2 mph - N/A   Mostly Cloudy
4:32 PM 48.2 °F - 39.2 °F 71% 30.18 in 10.0 mi North 5.8 mph - N/A   Scattered Clouds
4:52 PM 48.2 °F - 39.2 °F 71% 30.19 in 10.0 mi NNW 4.6 mph - N/A   Mostly Cloudy
5:12 PM 48.2 °F - 39.2 °F 71% 30.17 in 10.0 mi NNW 6.9 mph - N/A   Mostly Cloudy
5:32 PM 48.2 °F - 39.2 °F 71% 30.17 in 10.0 mi North 6.9 mph - N/A   Overcast
5:52 PM 48.2 °F - 39.2 °F 71% 30.17 in 10.0 mi North 5.8 mph - N/A   Overcast
6:12 PM 48.2 °F - 37.4 °F 66% 30.17 in 10.0 mi North 5.8 mph - N/A   Overcast
6:32 PM 48.2 °F - 39.2 °F 71% 30.18 in 10.0 mi North 3.5 mph - N/A   Mostly Cloudy
6:52 PM 48.2 °F - 39.2 °F 71% 30.17 in 10.0 mi North 5.8 mph - N/A   Overcast
7:12 PM 48.2 °F - 37.4 °F 66% 30.20 in 10.0 mi North 4.6 mph - N/A   Overcast
7:33 PM 48.2 °F - 37.4 °F 66% 30.20 in 10.0 mi NNE 3.5 mph - N/A   Overcast
7:53 PM 48.2 °F - 37.4 °F 66% 30.22 in 10.0 mi North 4.6 mph - N/A   Overcast
8:13 PM 48.2 °F - 37.4 °F 66% 30.22 in 10.0 mi Calm Calm - N/A   Overcast
8:33 PM 48.2 °F - 37.4 °F 66% 30.22 in 10.0 mi Calm Calm - N/A   Overcast
8:53 PM 48.2 °F - 39.2 °F 71% 30.21 in 10.0 mi Calm Calm - N/A   Overcast
9:13 PM 48.2 °F - 39.2 °F 71% 30.19 in 10.0 mi North 3.5 mph - N/A   Mostly Cloudy
9:33 PM 46.4 °F 45.2 °F 39.2 °F 76% 30.19 in 10.0 mi NNW 3.5 mph - N/A   Scattered Clouds
9:53 PM 48.2 °F - 37.4 °F 66% 30.19 in 10.0 mi NNW 3.5 mph - N/A   Mostly Cloudy
10:13 PM 48.2 °F - 39.2 °F 71% 30.19 in 10.0 mi NNW 3.5 mph - N/A   Mostly Cloudy
10:34 PM 46.4 °F 42.9 °F 39.2 °F 76% 30.19 in 10.0 mi North 6.9 mph - N/A   Overcast
10:54 PM 46.4 °F 42.9 °F 37.4 °F 71% 30.19 in 10.0 mi North 6.9 mph - N/A   Mostly Cloudy
11:14 PM 46.4 °F 43.5 °F 39.2 °F 76% 30.18 in 10.0 mi North 5.8 mph - N/A   Scattered Clouds
11:34 PM 46.4 °F 44.3 °F 37.4 °F 71% 30.19 in 10.0 mi North 4.6 mph - N/A   Scattered Clouds